OK1UOJ Weather Reports


Display with metric or nautical units.
time (UTC)temp
F
wind
direction
speed
MPH
gust
MPH
rain 1hr
in
rain 24hr
in
rain mn
in
humidity
%
barometer
mb
20260504205747 54 132 2.0 3.0 0.00 0.00 0.00 10 1014.0
20260504205315 54 141 2.0 2.0 0.00 0.00 0.00 10 1014.0
20260504205309 54 141 2.0 2.0 0.00 0.00 0.00 10 1014.0
20260504204400 55 171 2.0 2.0 0.00 0.00 0.00 10 1014.1
20260504204354 55 171 2.0 2.0 0.00 0.00 0.00 10 1014.1
20260504203917 56 135 2.0 2.0 0.00 0.00 0.00 10 1014.0
20260504203440 56 135 2.0 3.0 0.00 0.00 0.00 10 1014.0
20260504203007 56 135 1.0 2.0 0.00 0.00 0.00 10 1013.9
20260504203002 56 135 1.0 2.0 0.00 0.00 0.00 10 1013.9
20260504202530 57 138 2.0 3.0 0.00 0.00 0.00 10 1013.9
20260504202525 57 138 2.0 3.0 0.00 0.00 0.00 10 1013.9
20260504202047 58 123 2.0 3.0 0.00 0.00 0.00 10 1013.9
20260504201610 58 135 2.0 3.0 0.00 0.00 0.00 10 1013.9
20260504201132 58 132 3.0 4.0 0.00 0.00 0.00 10 1013.9
20260504200654 58 135 2.0 2.0 0.00 0.00 0.00 10 1013.8
20260504200217 59 135 3.0 4.0 0.00 0.00 0.00 10 1013.8
20260504195739 59 135 2.0 5.0 0.00 0.00 0.00 10 1013.8
20260504195304 60 153 2.0 2.0 0.00 0.00 0.00 10 1013.8
20260504194347 60 174 2.0 3.0 0.00 0.00 0.00 10 1013.9
20260504193909 59 161 2.0 3.0 0.00 0.00 0.00 10 1013.9
20260504192959 59 135 2.0 3.0 0.00 0.00 0.00 10 1013.9
20260504192954 59 135 2.0 3.0 0.00 0.00 0.00 10 1013.9
20260504192516 59 144 2.0 3.0 0.00 0.00 0.00 10 1014.0
20260504192039 59 141 2.0 3.0 0.00 0.00 0.00 10 1013.9
20260504191601 58 132 3.0 4.0 0.00 0.00 0.00 10 1013.9
20260504191124 58 135 3.0 3.0 0.00 0.00 0.00 10 1013.9
20260504190646 58 135 2.0 2.0 0.00 0.00 0.00 10 1013.8
20260504190209 58 142 1.0 2.0 0.00 0.00 0.00 10 1013.8
20260504185736 58 136 1.0 2.0 0.00 0.00 0.00 10 1013.8
20260504185731 58 136 1.0 2.0 0.00 0.00 0.00 10 1013.8
20260504185259 59 161 1.0 1.0 0.00 0.00 0.00 10 1013.8
20260504185253 59 161 1.0 1.0 0.00 0.00 0.00 10 1013.8
20260504184816 59 174 1.0 2.0 0.00 0.00 0.00 10 1013.7
20260504184338 60 180 1.0 2.0 0.00 0.00 0.00 10 1013.6
20260504183901 60 148 1.0 2.0 0.00 0.00 0.00 10 1013.6
20260504183428 61 135 0.0 1.0 0.00 0.00 0.00 10 1013.6
20260504183423 61 135 0.0 1.0 0.00 0.00 0.00 10 1013.6
20260504182950 61 138 1.0 2.0 0.00 0.00 0.00 10 1013.6
20260504182945 61 138 1.0 2.0 0.00 0.00 0.00 10 1013.6
20260504182035 63 135 1.0 1.0 0.00 0.00 0.00 10 1013.6
20260504182030 63 135 1.0 1.0 0.00 0.00 0.00 10 1013.6
20260504181119 65 135 1.0 2.0 0.00 0.00 0.00 10 1013.5
20260504181114 65 135 1.0 2.0 0.00 0.00 0.00 10 1013.5
20260504180636 66 135 1.0 2.0 0.00 0.00 0.00 10 1013.5
20260504180200 66 135 0.0 0.0 0.00 0.00 0.00 10 1013.5
20260504175726 67 135 0.0 0.0 0.00 0.00 0.00 10 1013.4
20260504175721 67 135 0.0 0.0 0.00 0.00 0.00 10 1013.4
20260504175248 68 135 0.0 0.0 0.00 0.00 0.00 10 1013.4
20260504175243 68 135 0.0 0.0 0.00 0.00 0.00 10 1013.4
20260504174805 68 135 0.0 0.0 0.00 0.00 0.00 10 1013.3
20260504174332 69 244 0.0 0.0 0.00 0.00 0.00 10 1013.3
20260504174327 69 244 0.0 0.0 0.00 0.00 0.00 10 1013.3
20260504173849 69 270 0.0 0.0 0.00 0.00 0.00 10 1013.3
20260504173416 70 270 0.0 0.0 0.00 0.00 0.00 10 1013.3
20260504173411 70 270 0.0 0.0 0.00 0.00 0.00 10 1013.3
20260504172500 71 270 0.0 0.0 0.00 0.00 0.00 10 1013.3
20260504172455 71 270 0.0 0.0 0.00 0.00 0.00 10 1013.3
20260504172021 71 270 0.0 0.0 0.00 0.00 0.00 93 1013.2
20260504172017 71 270 0.0 0.0 0.00 0.00 0.00 93 1013.2
20260504171543 71 270 0.0 0.0 0.00 0.00 0.00 94 1013.3
20260504171539 71 270 0.0 0.0 0.00 0.00 0.00 94 1013.3
20260504170628 72 270 0.0 0.0 0.00 0.00 0.00 10 1013.4
20260504170622 72 270 0.0 0.0 0.00 0.00 0.00 10 1013.4
20260504151029 78 255 1.0 2.0 0.00 0.00 0.00 49 1013.8
20260504151024 78 255 1.0 2.0 0.00 0.00 0.00 49 1013.8
20260504150551 78 306 1.0 3.0 0.00 0.00 0.00 49 1013.8
20260504150112 79 339 1.0 2.0 0.00 0.00 0.00 53 1013.8
20260504150107 79 339 1.0 2.0 0.00 0.00 0.00 53 1013.8
20260504141004 80 309 2.0 3.0 0.00 0.00 0.00 52 1014.2
20260504140959 80 309 2.0 3.0 0.00 0.00 0.00 52 1014.2
20260504140521 81 347 2.0 5.0 0.00 0.00 0.00 50 1014.2
20260504130456 79 128 2.0 3.0 0.00 0.00 0.00
20260504130451 79 128 2.0 3.0 0.00 0.00 0.00 56 1014.7
20260504100348 69 138 7.0 10.0 0.00 0.00 0.00 88 1016.3
20260504080754 64 136 6.0 10.0 0.00 0.00 0.00 95 1016.3
20260504080316 64 138 10.0 13.0 0.00 0.00 0.00 95 1016.2
20260504070302 62 141 4.0 5.0 0.00 0.00 0.00 10 1016.4
20260504050243 54 139 6.0 8.0 0.00 0.00 0.00 10 1016.3
20260504045806 54 135 6.0 8.0 0.00 0.00 0.00 10 1016.2
20260504045328 54 135 6.0 7.0 0.00 0.00 0.00 10 1016.2
20260504044851 54 135 5.0 7.0 0.00 0.00 0.00 10 1016.2
20260504044413 53 135 4.0 7.0 0.00 0.00 0.00 10 1016.3
20260504043936 53 135 5.0 6.0 0.00 0.00 0.00 10 1016.2
20260504042107 52 138 4.0 5.0 0.00 0.00 0.00 10 1016.0
20260504041629 52 132 4.0 7.0 0.00 0.00 0.00 10 1016.0
20260504041152 52 132 4.0 6.0 0.00 0.00 0.00 10 1015.9
20260504040719 52 131 4.0 6.0 0.00 0.00 0.00 10 1015.9
20260504040714 52 131 4.0 6.0 0.00 0.00 0.00 10 1015.9
20260504040237 52 134 5.0 7.0 0.00 0.00 0.00 10 1015.8
20260504035800 52 132 5.0 7.0 0.00 0.00 0.00 10 1015.8
20260504035322 53 132 6.0 7.0 0.00 0.00 0.00 10 1015.8
20260504034845 53 129 5.0 8.0 0.00 0.00 0.00 10 1015.9
20260504034407 53 135 5.0 8.0 0.00 0.00 0.00 10 1015.9
20260504033457 53 132 5.0 7.0 0.00 0.00 0.00 10 1015.8
20260504033453 53 132 5.0 7.0 0.00 0.00 0.00 10 1015.8
20260504032543 53 129 5.0 7.0 0.00 0.00 0.00 10 1015.8
20260504032538 53 129 5.0 7.0 0.00 0.00 0.00 10 1015.8
20260504031629 53 126 6.0 7.0 0.00 0.00 0.00 10 1015.7
20260504031623 53 126 6.0 7.0 0.00 0.00 0.00 10 1015.7
20260504031151 53 132 5.0 7.0 0.00 0.00 0.00 10 1015.6
20260504031146 53 132 5.0 7.0 0.00 0.00 0.00 10 1015.6
20260504030713 53 132 6.0 8.0 0.00 0.00 0.00 10 1015.6
20260504030708 53 132 6.0 8.0 0.00 0.00 0.00 10 1015.6
20260504030236 53 117 6.0 8.0 0.00 0.00 0.00 10 1015.6
20260504030231 53 117 6.0 8.0 0.00 0.00 0.00 10 1015.6
20260504025759 53 131 6.0 8.0 0.00 0.00 0.00 10 1015.6
20260504025754 53 131 6.0 8.0 0.00 0.00 0.00 10 1015.6
20260504025316 53 128 6.0 8.0 0.00 0.00 0.00 10 1015.6
20260504024406 53 121 5.0 7.0 0.00 0.00 0.00 10 1015.8
20260504024401 53 121 5.0 7.0 0.00 0.00 0.00 10 1015.8
20260504023929 53 123 4.0 6.0 0.00 0.00 0.00 10 1015.8
20260504023924 53 123 4.0 6.0 0.00 0.00 0.00 10 1015.8
20260504023452 53 126 3.0 9.0 0.00 0.00 0.00 10 1015.8
20260504023447 53 126 3.0 5.0 0.00 0.00 0.00 10 1015.8
20260504023009 54 123 4.0 6.0 0.00 0.00 0.00 10 1015.8
20260504022537 54 129 5.0 7.0 0.00 0.00 0.00 99 1015.6
20260504022532 54 129 5.0 7.0 0.00 0.00 0.00 99 1015.6
20260504021617 54 132 5.0 7.0 0.00 0.00 0.00 99 1015.5
20260504021140 54 126 6.0 8.0 0.00 0.00 0.00 98 1015.5
20260504014833 54 131 6.0 9.0 0.00 0.00 0.00 98 1015.5
20260504014355 54 123 5.0 7.0 0.00 0.00 0.00 98 1015.4
20260504013923 54 119 5.0 7.0 0.00 0.00 0.00 97 1015.5
20260504013918 54 119 5.0 7.0 0.00 0.00 0.00 97 1015.5
20260504013446 54 123 5.0 6.0 0.00 0.00 0.00 97 1015.5
20260504013440 54 123 5.0 6.0 0.00 0.00 0.00 97 1015.5
20260504013021 54 132 4.0 6.0 0.00 0.00 0.00 96 1015.5
20260504013009 54 132 4.0 6.0 0.00 0.00 0.00 96 1015.5
20260504013003 54 132 4.0 6.0 0.00 0.00 0.00 96 1015.5
20260504012550 55 117 5.0 7.0 0.00 0.00 0.00 95 1015.4
20260504012531 55 117 5.0 7.0 0.00 0.00 0.00 95 1015.4
20260504012526 55 117 5.0 7.0 0.00 0.00 0.00 95 1015.4
20260504012048 55 123 5.0 8.0 0.00 0.00 0.00 95 1015.4
20260504011611 55 126 6.0 11.0 0.00 0.00 0.00 94 1015.4
20260504011133 55 116 5.0 8.0 0.00 0.00 0.00 95 1015.3
20260504010223 55 129 6.0 8.0 0.00 0.00 0.00 94 1015.4
20260504010218 55 129 6.0 8.0 0.00 0.00 0.00 94 1015.4
20260504005741 55 131 5.0 8.0 0.00 0.00 0.00 94 1015.4
20260504005309 55 129 6.0 8.0 0.00 0.00 0.00 94 1015.4
20260504005304 55 129 6.0 8.0 0.00 0.00 0.00 94 1015.4
20260504004831 55 125 6.0 8.0 0.00 0.00 0.00 92 1015.4
20260504004826 55 125 6.0 8.0 0.00 0.00 0.00 92 1015.4
20260504004354 55 120 6.0 8.0 0.00 0.00 0.00 93 1015.3
20260504004349 55 120 6.0 8.0 0.00 0.00 0.00 93 1015.3
20260504003439 56 126 6.0 7.0 0.00 0.00 0.00 92 1015.3
20260504003434 56 126 6.0 7.0 0.00 0.00 0.00 92 1015.3
20260504003013 56 129 5.0 7.0 0.00 0.00 0.00 92 1013.3
20260504003001 56 129 5.0 7.0 0.00 0.00 0.00 92 1015.3
20260504002956 56 129 5.0 7.0 0.00 0.00 0.00 92 1015.3
20260504002519 56 132 4.0 7.0 0.00 0.00 0.00 91 1015.3
20260504002041 56 120 5.0 8.0 0.00 0.00 0.00 92 1015.4
20260504001609 56 130 4.0 7.0 0.00 0.00 0.00 93 1015.4
20260504001604 56 130 4.0 7.0 0.00 0.00 0.00 93 1015.4
20260504000219 55 123 4.0 5.0 0.00 0.00 0.00 98 1015.4
20260504000212 55 123 4.0 5.0 0.00 0.00 0.00 98 1015.4
20260503235734 54 126 4.0 5.0 0.00 0.00 0.00 99 1015.5
20260503235257 54 126 4.0 6.0 0.00 0.00 0.00 99 1015.5
20260503234820 54 129 4.0 5.0 0.00 0.00 0.00 99 1015.5
20260503232955 54 114 3.0 5.0 0.00 0.00 0.00 10 1015.5
20260503232950 54 114 3.0 5.0 0.00 0.00 0.00 10 1015.5
20260503232513 54 131 3.0 5.0 0.00 0.00 0.00 10 1015.6
20260503232035 54 125 2.0 4.0 0.00 0.00 0.00 99 1015.6
20260503231558 54 125 3.0 5.0 0.00 0.00 0.00 99 1015.6
20260503231120 54 123 3.0 4.0 0.00 0.00 0.00 10 1015.6
20260503230643 54 119 4.0 5.0 0.00 0.00 0.00 10 1015.6
20260503225733 55 135 4.0 5.0 0.00 0.00 0.00 10 1015.5
20260503225728 55 135 4.0 5.0 0.00 0.00 0.00 10 1015.5
20260503225251 55 132 4.0 5.0 0.00 0.00 0.00 10 1015.6
20260503224813 55 132 4.0 6.0 0.00 0.00 0.00 10 1015.6
20260503224341 55 132 4.0 5.0 0.00 0.00 0.00 99 1015.7
20260503224336 55 132 4.0 5.0 0.00 0.00 0.00 99 1015.7
20260503222511 55 120 3.0 4.0 0.00 0.00 0.00 10 1015.8
20260503222506 55 120 3.0 4.0 0.00 0.00 0.00 10 1015.8
20260503221551 55 126 2.0 3.0 0.00 0.00 0.00 10 1015.7
20260503221114 55 132 3.0 3.0 0.00 0.00 0.00 10 1015.8
20260503220641 55 129 3.0 5.0 0.00 0.00 0.00 10 1015.8
20260503220636 55 129 3.0 5.0 0.00 0.00 0.00 10 1015.8
20260503215722 55 120 4.0 5.0 0.00 0.00 0.00 10 1016.0
20260503215244 55 132 4.0 6.0 0.00 0.00 0.00 10 1016.0
20260503214807 55 129 4.0 6.0 0.00 0.00 0.00 10 1015.9
20260503214329 55 126 4.0 5.0 0.00 0.00 0.00 10 1016.0
20260503213852 56 129 5.0 6.0 0.00 0.00 0.00 10 1015.9
20260503212937 55 129 4.0 6.0 0.00 0.00 0.00 10 1015.9
20260503212459 56 120 4.0 6.0 0.00 0.00 0.00 10 1016.0
20260503211545 56 126 4.0 7.0 0.00 0.00 0.00 10 1016.0
20260503211112 56 129 4.0 6.0 0.00 0.00 0.00 10 1015.9
20260503211107 56 129 4.0 6.0 0.00 0.00 0.00 10 1015.9
20260503210630 56 132 5.0 6.0 0.00 0.00 0.00 10 1015.9